Total_Precipitation_Accumulation
1.12 1.35 1.68 2.05 2.35 2.55 2.87 3.03 3.28 3.56 3.66 3.61 3.38 3.21 3.09 3.13 2.99 2.65 2.34 2.26 2.14 2.01 2.05 2.12 2.03 1.83 1.69 1.56 1.45 1.38 1.34 1.36 1.41 1.41 1.26 1.10 0.96 0.79 0.66 0.56 0.48 0.41 0.35
0.98 1.22 1.61 1.81 2.03 2.27 2.45 2.76 2.89 3.24 3.36 3.27 3.26 3.18 3.17 3.18 3.17 2.99 2.72 2.58 2.45 2.27 2.15 2.10 2.10 1.99 1.84 1.78 1.74 1.62 1.53 1.45 1.42 1.44 1.45 1.35 1.27 1.02 0.76 0.65 0.60 0.53 0.49
0.80 1.01 1.36 1.64 1.77 2.01 2.28 2.40 2.55 2.82 3.15 3.27 3.45 3.60 3.60 3.39 3.21 3.08 2.99 2.81 2.73 2.59 2.36 2.22 2.21 2.17 2.01 1.86 1.84 1.83 1.78 1.73 1.68 1.56 1.63 1.52 1.28 1.08 0.89 0.73 0.66 0.62 0.61
0.73 0.87 1.00 1.27 1.48 1.66 2.05 2.35 2.56 2.73 2.93 3.33 3.40 3.34 3.23 3.00 2.78 2.84 2.94 2.94 2.85 2.79 2.62 2.50 2.44 2.34 2.18 2.05 2.02 2.00 2.03 2.02 1.95 1.83 1.65 1.49 1.28 1.23 1.09 0.85 0.73 0.68 0.62
0.81 0.85 0.91 1.05 1.23 1.41 1.78 2.14 2.40 2.74 2.97 3.13 3.24 3.31 3.12 2.85 2.80 2.82 2.86 2.80 2.74 2.72 2.70 2.63 2.67 2.57 2.40 2.28 2.25 2.22 2.23 2.23 2.15 2.01 1.86 1.74 1.53 1.34 1.27 1.07 0.86 0.82 0.74
0.84 0.83 0.89 1.01 1.17 1.28 1.50 1.87 2.14 2.30 2.61 2.91 3.00 3.06 3.05 2.97 2.88 2.75 2.72 2.75 2.73 2.69 2.66 2.69 2.69 2.67 2.61 2.47 2.40 2.33 2.31 2.30 2.25 2.18 2.01 1.89 1.78 1.57 1.49 1.34 1.09 1.04 0.94
0.78 0.79 0.87 1.00 1.18 1.32 1.43 1.57 1.78 1.91 2.09 2.36 2.56 2.64 2.78 2.88 2.78 2.63 2.49 2.50 2.52 2.51 2.51 2.53 2.60 2.63 2.59 2.57 2.53 2.49 2.39 2.35 2.34 2.27 2.15 2.00 1.84 1.72 1.75 1.73 1.48 1.27 1.08
0.75 0.76 0.78 0.86 1.01 1.20 1.37 1.44 1.54 1.66 1.82 1.97 2.10 2.30 2.49 2.71 2.71 2.64 2.42 2.32 2.29 2.28 2.42 2.44 2.37 2.40 2.46 2.50 2.50 2.45 2.35 2.30 2.24 2.18 2.11 2.05 1.87 1.80 1.84 1.94 2.04 1.92 1.54
0.73 0.72 0.73 0.76 0.90 1.02 1.21 1.31 1.41 1.51 1.60 1.72 1.85 2.00 2.16 2.30 2.40 2.50 2.44 2.34 2.26 2.22 2.19 2.19 2.20 2.14 2.17 2.27 2.37 2.31 2.23 2.18 2.12 2.05 2.00 2.02 1.92 1.85 1.85 1.96 2.18 2.42 2.21
0.70 0.66 0.69 0.77 0.88 0.91 1.05 1.22 1.32 1.39 1.42 1.50 1.60 1.67 1.82 2.03 2.15 2.27 2.25 2.19 2.21 2.21 2.13 1.98 1.94 1.92 1.93 2.00 2.09 2.08 2.02 2.01 1.94 1.88 1.84 1.80 1.77 1.79 1.80 1.85 1.94 2.14 2.26
0.72 0.71 0.73 0.83 0.94 0.92 0.99 1.16 1.27 1.39 1.43 1.43 1.46 1.48 1.49 1.61 1.81 1.98 2.09 2.05 2.10 2.15 2.10 1.96 1.86 1.82 1.76 1.78 1.81 1.77 1.79 1.82 1.81 1.78 1.74 1.64 1.58 1.64 1.66 1.66 1.70 1.79 1.93
0.70 0.74 0.80 0.81 0.85 0.95 1.04 1.13 1.21 1.35 1.46 1.49 1.47 1.47 1.47 1.44 1.53 1.65 1.86 1.94 2.04 2.05 2.09 2.02 1.89 1.80 1.72 1.67 1.68 1.64 1.59 1.59 1.60 1.60 1.62 1.57 1.50 1.51 1.53 1.56 1.53 1.50 1.53
0.70 0.67 0.74 0.81 0.81 0.88 1.06 1.17 1.24 1.31 1.39 1.49 1.51 1.47 1.43 1.37 1.35 1.42 1.58 1.69 1.81 1.87 1.91 1.99 1.92 1.78 1.70 1.62 1.58 1.53 1.51 1.48 1.42 1.44 1.49 1.51 1.54 1.53 1.50 1.48 1.45 1.42 1.42
0.70 0.65 0.71 0.76 0.78 0.83 0.93 1.03 1.15 1.19 1.31 1.43 1.51 1.52 1.46 1.41 1.36 1.40 1.45 1.54 1.61 1.70 1.72 1.79 1.88 1.89 1.83 1.72 1.61 1.54 1.49 1.48 1.42 1.39 1.45 1.46 1.43 1.38 1.35 1.36 1.33 1.36 1.42
0.65 0.67 0.70 0.73 0.74 0.70 0.71 0.80 0.93 1.05 1.13 1.30 1.47 1.51 1.55 1.59 1.61 1.55 1.49 1.48 1.50 1.58 1.61 1.65 1.74 1.81 1.85 1.81 1.70 1.60 1.55 1.53 1.53 1.45 1.41 1.42 1.46 1.39 1.33 1.31 1.30 1.33 1.42
0.61 0.61 0.63 0.69 0.71 0.69 0.67 0.70 0.77 0.90 0.95 1.08 1.25 1.36 1.46 1.57 1.71 1.74 1.68 1.60 1.54 1.55 1.60 1.60 1.65 1.70 1.75 1.97 1.93 1.71 1.62 1.58 1.50 1.42 1.31 1.30 1.38 1.37 1.38 1.36 1.33 1.37 1.47
0.57 0.55 0.57 0.63 0.64 0.63 0.65 0.68 0.71 0.81 0.90 0.92 0.99 1.13 1.32 1.43 1.55 1.72 1.82 1.74 1.69 1.71 1.72 1.73 1.76 1.75 1.84 1.96 1.81 1.72 1.55 1.50 1.40 1.29 1.22 1.16 1.14 1.21 1.13 1.19 1.26 1.27 1.37
0.50 0.50 0.53 0.57 0.56 0.56 0.58 0.61 0.63 0.72 0.86 0.92 0.97 1.08 1.20 1.32 1.49 1.66 1.80 1.88 1.86 1.91 1.90 1.86 1.85 1.82 1.84 1.88 1.74 1.70 1.50 1.40 1.28 1.17 1.09 1.06 1.04 1.06 1.14 1.21 1.27 1.17 1.10
0.49 0.48 0.51 0.55 0.52 0.54 0.59 0.58 0.59 0.69 0.79 0.87 0.94 1.01 1.12 1.22 1.38 1.57 1.72 1.83 1.87 1.92 1.96 1.86 1.74 1.65 1.66 1.70 1.58 1.56 1.45 1.43 1.31 1.19 1.12 1.09 1.03 1.14 1.30 1.35 1.35 1.19 1.02
0.51 0.51 0.50 0.48 0.48 0.56 0.61 0.62 0.65 0.70 0.80 0.85 0.91 0.95 1.05 1.14 1.24 1.40 1.57 1.72 1.80 1.82 1.78 1.71 1.61 1.50 1.47 1.55 1.46 1.43 1.40 1.40 1.31 1.22 1.17 1.23 1.17 1.27 1.37 1.29 1.30 1.22 1.02
0.48 0.53 0.56 0.56 0.58 0.64 0.68 0.69 0.70 0.74 0.79 0.82 0.88 0.94 0.99 1.09 1.17 1.20 1.29 1.41 1.49 1.52 1.50 1.43 1.41 1.39 1.38 1.39 1.32 1.30 1.28 1.29 1.29 1.26 1.18 1.16 1.34 1.41 1.44 1.31 1.11 1.12 1.18
0.50 0.53 0.58 0.61 0.64 0.67 0.69 0.69 0.72 0.78 0.79 0.80 0.85 0.93 0.99 1.00 1.04 1.06 1.09 1.12 1.16 1.24 1.29 1.24 1.22 1.26 1.31 1.31 1.29 1.31 1.33 1.34 1.24 1.18 1.07 1.11 1.35 1.35 1.31 1.21 1.21 1.30 1.23
0.56 0.55 0.55 0.56 0.58 0.67 0.74 0.77 0.77 0.77 0.77 0.78 0.82 0.85 0.88 0.91 0.95 1.00 1.01 1.04 1.06 1.11 1.19 1.16 1.14 1.13 1.13 1.19 1.31 1.30 1.35 1.37 1.23 1.16 1.22 1.26 1.28 1.23 1.18 1.21 1.22 1.17 1.09
0.59 0.57 0.54 0.53 0.57 0.61 0.66 0.71 0.70 0.69 0.69 0.75 0.76 0.77 0.77 0.80 0.85 0.91 0.97 1.04 1.09 1.07 1.07 1.07 1.06 1.05 1.02 0.99 1.06 1.17 1.23 1.30 1.26 1.24 1.26 1.24 1.20 1.18 1.19 1.25 1.19 1.06 1.09
0.60 0.57 0.55 0.56 0.59 0.59 0.61 0.65 0.67 0.64 0.64 0.67 0.67 0.68 0.71 0.75 0.81 0.87 0.95 1.04 1.08 1.14 1.14 1.06 1.00 1.02 1.05 1.05 1.16 1.18 1.14 1.22 1.28 1.27 1.15 1.10 1.10 1.12 1.11 1.07 1.08 1.09 1.13
0.57 0.55 0.53 0.55 0.56 0.55 0.59 0.62 0.64 0.65 0.65 0.65 0.65 0.66 0.66 0.70 0.77 0.84 0.92 1.04 1.08 1.12 1.13 1.13 1.07 1.02 1.08 1.13 1.16 1.17 1.21 1.28 1.33 1.25 1.14 1.08 1.03 1.03 1.04 1.02 1.02 1.05 1.09